Time,TemperatureF,DewpointF,PressureIn,WindDirection,WindDirectionDegrees,WindSpeedMPH,WindSpeedGustMPH,Humidity,HourlyPrecipIn,Conditions,Clouds,dailyrainin,SolarRadiationWatts/m^2,SoftwareType,DateUTC
2013-04-17 00:00:00,64.9,58.6,30.20,NNE,12,0.0,0.0,86,0.00,,,0.00,0.0,meteohub,2013-04-17 04:00:00,
2013-04-17 00:01:00,64.9,58.6,30.20,NNE,12,0.0,1.0,86,0.00,,,0.00,0.0,meteohub,2013-04-17 04:01:00,
2013-04-17 00:05:00,64.9,59.0,30.20,NNE,12,0.0,1.0,87,0.00,,,0.00,0.0,meteohub,2013-04-17 04:05:00,
2013-04-17 00:10:00,64.8,58.8,30.21,NNE,12,0.0,1.0,87,0.00,,,0.00,0.0,meteohub,2013-04-17 04:10:00,
2013-04-17 00:15:00,64.8,58.8,30.21,NNE,12,0.0,1.0,87,0.00,,,0.00,0.0,meteohub,2013-04-17 04:15:00,
2013-04-17 00:20:00,64.6,58.6,30.20,NNE,12,0.0,1.0,87,0.00,,,0.00,0.0,meteohub,2013-04-17 04:20:00,
2013-04-17 00:25:00,64.6,58.6,30.20,NNE,12,0.0,1.0,87,0.00,,,0.00,0.0,meteohub,2013-04-17 04:25:00,
2013-04-17 00:30:00,64.2,58.3,30.21,NNE,12,0.0,1.0,87,0.00,,,0.00,0.0,meteohub,2013-04-17 04:30:00,
2013-04-17 00:35:00,64.2,58.3,30.21,NNE,12,0.0,1.0,87,0.00,,,0.00,0.0,meteohub,2013-04-17 04:35:00,
2013-04-17 00:40:00,64.0,58.1,30.21,NNE,12,0.0,1.0,87,0.00,,,0.00,0.0,meteohub,2013-04-17 04:40:00,
2013-04-17 00:46:00,64.0,58.1,30.21,NNE,12,0.0,0.0,87,0.00,,,0.00,0.0,meteohub,2013-04-17 04:46:00,
2013-04-17 00:51:00,64.0,58.5,30.21,NNE,12,0.0,0.0,88,0.00,,,0.00,0.0,meteohub,2013-04-17 04:51:00,
2013-04-17 00:57:00,63.9,57.9,30.20,NNE,12,0.0,0.0,87,0.00,,,0.00,0.0,meteohub,2013-04-17 04:57:00,
2013-04-17 01:02:00,63.9,58.3,30.20,NNE,12,0.0,0.0,88,0.00,,,0.00,0.0,meteohub,2013-04-17 05:02:00,
2013-04-17 01:07:00,63.7,58.1,30.20,NNE,12,0.0,0.0,88,0.00,,,0.00,0.0,meteohub,2013-04-17 05:07:00,
2013-04-17 01:12:00,63.5,57.9,30.20,NNE,12,0.0,0.0,88,0.00,,,0.00,0.0,meteohub,2013-04-17 05:12:00,
2013-04-17 01:17:00,63.3,57.7,30.20,NNE,12,0.0,0.0,88,0.00,,,0.00,0.0,meteohub,2013-04-17 05:17:00,
2013-04-17 01:22:00,63.3,57.7,30.20,NNE,12,0.0,0.0,88,0.00,,,0.00,0.0,meteohub,2013-04-17 05:22:00,
2013-04-17 01:27:00,63.1,57.6,30.20,NNE,12,0.0,0.0,88,0.00,,,0.00,0.0,meteohub,2013-04-17 05:27:00,
2013-04-17 01:32:00,63.1,57.6,30.19,NNE,12,0.0,0.0,88,0.00,,,0.00,0.0,meteohub,2013-04-17 05:32:00,
2013-04-17 01:37:00,63.1,57.6,30.20,NNE,12,0.0,0.0,88,0.00,,,0.00,0.0,meteohub,2013-04-17 05:37:00,
2013-04-17 01:42:00,63.0,57.7,30.20,NNE,12,0.0,0.0,89,0.00,,,0.00,0.0,meteohub,2013-04-17 05:42:00,
2013-04-17 01:48:00,63.0,57.7,30.20,NNE,12,0.0,0.0,89,0.00,,,0.00,0.0,meteohub,2013-04-17 05:48:00,
2013-04-17 01:53:00,62.8,57.6,30.19,NNE,12,0.0,0.0,89,0.00,,,0.00,0.0,meteohub,2013-04-17 05:53:00,
2013-04-17 01:58:00,62.8,57.6,30.19,NNE,12,0.0,0.0,89,0.00,,,0.00,0.0,meteohub,2013-04-17 05:58:00,
2013-04-17 02:03:00,62.8,57.9,30.19,NNE,12,0.0,0.0,90,0.00,,,0.00,0.0,meteohub,2013-04-17 06:03:00,
2013-04-17 02:08:00,62.6,57.7,30.19,NNE,12,0.0,0.0,90,0.00,,,0.00,0.0,meteohub,2013-04-17 06:08:00,
2013-04-17 02:14:00,62.4,57.6,30.19,NNE,12,0.0,0.0,90,0.00,,,0.00,0.0,meteohub,2013-04-17 06:14:00,
2013-04-17 02:19:00,62.4,57.6,30.19,NNE,12,0.0,0.0,90,0.00,,,0.00,0.0,meteohub,2013-04-17 06:19:00,
2013-04-17 02:24:00,62.4,57.6,30.19,NNE,12,0.0,0.0,90,0.00,,,0.00,0.0,meteohub,2013-04-17 06:24:00,
2013-04-17 02:30:00,62.4,57.6,30.20,NNE,12,0.0,0.0,90,0.00,,,0.00,0.0,meteohub,2013-04-17 06:30:00,
2013-04-17 02:35:00,62.2,57.4,30.20,NNE,12,0.0,0.0,90,0.00,,,0.00,0.0,meteohub,2013-04-17 06:35:00,
2013-04-17 02:40:00,62.2,57.4,30.20,NNE,12,0.0,0.0,90,0.00,,,0.00,0.0,meteohub,2013-04-17 06:40:00,
2013-04-17 02:45:00,62.2,57.4,30.20,NNE,12,0.0,0.0,90,0.00,,,0.00,0.0,meteohub,2013-04-17 06:45:00,
2013-04-17 02:51:00,62.1,57.2,30.20,NNE,12,0.0,0.0,90,0.00,,,0.00,0.0,meteohub,2013-04-17 06:51:00,
2013-04-17 02:56:00,62.1,57.2,30.20,NNE,12,0.0,0.0,90,0.00,,,0.00,0.0,meteohub,2013-04-17 06:56:00,
2013-04-17 03:02:00,61.9,57.4,30.20,NNE,12,0.0,0.0,91,0.00,,,0.00,0.0,meteohub,2013-04-17 07:02:00,
2013-04-17 03:07:00,61.9,57.4,30.20,NNE,12,0.0,0.0,91,0.00,,,0.00,0.0,meteohub,2013-04-17 07:07:00,
2013-04-17 03:12:00,61.9,57.4,30.20,NNE,12,0.0,0.0,91,0.00,,,0.00,0.0,meteohub,2013-04-17 07:12:00,
2013-04-17 03:17:00,61.9,57.4,30.20,NNE,12,0.0,0.0,91,0.00,,,0.00,0.0,meteohub,2013-04-17 07:17:00,
2013-04-17 03:23:00,61.9,57.4,30.20,NNE,12,0.0,0.0,91,0.00,,,0.00,0.0,meteohub,2013-04-17 07:23:00,
2013-04-17 03:28:00,61.9,57.4,30.20,NNE,12,0.0,0.0,91,0.00,,,0.00,0.0,meteohub,2013-04-17 07:28:00,
2013-04-17 03:33:00,61.9,57.6,30.20,NNE,12,0.0,0.0,92,0.00,,,0.00,0.0,meteohub,2013-04-17 07:33:00,
2013-04-17 03:39:00,61.9,57.6,30.21,NNE,12,0.0,0.0,92,0.00,,,0.00,0.0,meteohub,2013-04-17 07:39:00,
2013-04-17 03:44:00,62.1,57.7,30.21,NNE,12,0.0,0.0,92,0.00,,,0.00,0.0,meteohub,2013-04-17 07:44:00,
2013-04-17 03:49:00,62.1,57.7,30.20,NNE,12,0.0,0.0,92,0.00,,,0.00,0.0,meteohub,2013-04-17 07:49:00,
2013-04-17 03:54:00,62.1,57.7,30.20,NNE,12,0.0,0.0,92,0.00,,,0.00,0.0,meteohub,2013-04-17 07:54:00,
2013-04-17 04:00:00,62.1,58.1,30.21,NNE,12,0.0,0.0,93,0.00,,,0.00,0.0,meteohub,2013-04-17 08:00:00,
2013-04-17 04:05:00,62.2,58.3,30.21,NNE,12,0.0,0.0,93,0.00,,,0.00,0.0,meteohub,2013-04-17 08:05:00,
2013-04-17 04:10:00,62.2,58.3,30.21,NNE,12,0.0,0.0,93,0.00,,,0.00,0.0,meteohub,2013-04-17 08:10:00,
2013-04-17 04:16:00,62.2,58.3,30.21,NNE,12,0.0,0.0,93,0.00,,,0.00,0.0,meteohub,2013-04-17 08:16:00,
2013-04-17 04:21:00,62.4,58.5,30.20,NNE,12,0.0,0.0,93,0.00,,,0.00,0.0,meteohub,2013-04-17 08:21:00,
2013-04-17 04:26:00,62.4,58.5,30.21,NNE,12,0.0,0.0,93,0.00,,,0.00,0.0,meteohub,2013-04-17 08:26:00,
2013-04-17 04:32:00,62.4,58.5,30.21,NNE,12,0.0,0.0,93,0.00,,,0.00,0.0,meteohub,2013-04-17 08:32:00,
2013-04-17 04:37:00,62.6,58.6,30.21,NNE,12,0.0,0.0,93,0.00,,,0.00,0.0,meteohub,2013-04-17 08:37:00,
2013-04-17 04:42:00,62.8,58.8,30.21,NNE,29,0.0,0.0,93,0.00,,,0.00,0.0,meteohub,2013-04-17 08:42:00,
2013-04-17 04:47:00,62.8,58.8,30.21,NNE,29,0.0,0.0,93,0.00,,,0.00,0.0,meteohub,2013-04-17 08:47:00,
2013-04-17 04:52:00,62.8,58.8,30.21,NNE,29,0.0,0.0,93,0.00,,,0.00,0.0,meteohub,2013-04-17 08:52:00,
2013-04-17 04:57:00,63.0,59.0,30.21,NNE,28,0.0,0.0,93,0.00,,,0.00,0.0,meteohub,2013-04-17 08:57:00,
2013-04-17 05:02:00,63.0,59.0,30.21,NNE,28,0.0,0.0,93,0.00,,,0.00,0.0,meteohub,2013-04-17 09:02:00,
2013-04-17 05:07:00,63.0,59.0,30.21,NNE,28,0.0,0.0,93,0.00,,,0.00,0.0,meteohub,2013-04-17 09:07:00,
2013-04-17 05:13:00,63.1,59.2,30.21,NNE,28,0.0,2.0,93,0.00,,,0.00,0.0,meteohub,2013-04-17 09:13:00,
2013-04-17 05:18:00,63.1,59.2,30.20,NNE,28,0.0,2.0,93,0.00,,,0.00,0.0,meteohub,2013-04-17 09:18:00,
2013-04-17 05:24:00,63.1,59.2,30.21,NNE,28,0.0,2.0,93,0.00,,,0.00,0.0,meteohub,2013-04-17 09:24:00,
2013-04-17 05:29:00,63.3,59.4,30.21,NNE,28,0.0,2.0,93,0.00,,,0.00,0.0,meteohub,2013-04-17 09:29:00,
2013-04-17 05:34:00,63.3,59.0,30.21,NNE,28,0.0,2.0,92,0.00,,,0.00,0.0,meteohub,2013-04-17 09:34:00,
2013-04-17 05:39:00,63.3,59.4,30.21,NNE,28,0.0,2.0,93,0.00,,,0.00,0.0,meteohub,2013-04-17 09:39:00,
2013-04-17 05:44:00,63.5,59.2,30.21,NNE,28,0.0,2.0,92,0.00,,,0.00,0.0,meteohub,2013-04-17 09:44:00,
2013-04-17 05:50:00,63.7,59.4,30.21,NNE,28,0.0,1.0,92,0.00,,,0.00,0.0,meteohub,2013-04-17 09:50:00,
2013-04-17 05:55:00,63.7,59.4,30.21,NNE,28,0.0,1.0,92,0.00,,,0.00,0.0,meteohub,2013-04-17 09:55:00,
2013-04-17 06:00:00,63.7,59.4,30.21,NNE,28,0.0,1.0,92,0.00,,,0.00,0.0,meteohub,2013-04-17 10:00:00,
2013-04-17 06:05:00,63.7,59.4,30.21,NNE,28,0.0,1.0,92,0.00,,,0.00,0.0,meteohub,2013-04-17 10:05:00,
2013-04-17 06:10:00,63.7,59.4,30.21,NNE,28,0.0,1.0,92,0.00,,,0.00,0.0,meteohub,2013-04-17 10:10:00,
2013-04-17 06:15:00,63.7,59.0,30.21,NNE,28,0.0,1.0,91,0.00,,,0.00,0.0,meteohub,2013-04-17 10:15:00,
2013-04-17 06:21:00,63.7,59.0,30.21,NNE,28,0.0,1.0,91,0.00,,,0.00,0.0,meteohub,2013-04-17 10:21:00,
2013-04-17 06:26:00,63.7,59.0,30.22,NNE,28,0.0,1.0,91,0.00,,,0.00,0.0,meteohub,2013-04-17 10:26:00,
2013-04-17 06:32:00,63.7,59.0,30.22,NNE,28,0.0,1.0,91,0.00,,,0.00,0.0,meteohub,2013-04-17 10:32:00,
2013-04-17 06:37:00,63.5,58.8,30.22,NNE,28,0.0,1.0,91,0.00,,,0.00,0.0,meteohub,2013-04-17 10:37:00,
2013-04-17 06:42:00,63.5,58.8,30.22,NNE,28,0.0,1.0,91,0.00,,,0.00,0.0,meteohub,2013-04-17 10:42:00,
2013-04-17 06:47:00,63.5,58.6,30.22,NNE,28,0.0,1.0,90,0.00,,,0.00,0.0,meteohub,2013-04-17 10:47:00,
2013-04-17 06:52:00,63.3,58.5,30.22,NNE,28,0.0,1.0,90,0.00,,,0.00,0.0,meteohub,2013-04-17 10:52:00,
2013-04-17 06:57:00,63.3,58.5,30.22,NNE,28,0.0,1.0,90,0.00,,,0.00,0.0,meteohub,2013-04-17 10:57:00,
2013-04-17 07:02:00,63.3,58.5,30.22,NNE,28,0.0,1.0,90,0.00,,,0.00,0.0,meteohub,2013-04-17 11:02:00,
2013-04-17 07:07:00,63.3,58.5,30.22,NNE,28,0.0,1.0,90,0.00,,,0.00,0.0,meteohub,2013-04-17 11:07:00,
2013-04-17 07:12:00,63.3,58.5,30.22,NNE,28,0.0,1.0,90,0.00,,,0.00,7.0,meteohub,2013-04-17 11:12:00,
2013-04-17 07:18:00,63.1,58.3,30.22,NNE,28,0.0,1.0,90,0.00,,,0.00,12.0,meteohub,2013-04-17 11:18:00,
2013-04-17 07:23:00,63.1,58.3,30.23,NNE,28,0.0,1.0,90,0.00,,,0.00,16.0,meteohub,2013-04-17 11:23:00,
2013-04-17 07:28:00,63.1,58.6,30.23,NNE,28,0.0,1.0,91,0.00,,,0.00,19.0,meteohub,2013-04-17 11:28:00,
2013-04-17 07:33:00,63.1,58.6,30.24,NNE,28,0.0,1.0,91,0.00,,,0.00,23.0,meteohub,2013-04-17 11:33:00,
2013-04-17 07:38:00,63.1,58.6,30.23,NNE,28,0.0,1.0,91,0.00,,,0.00,25.0,meteohub,2013-04-17 11:38:00,
2013-04-17 07:43:00,63.1,58.6,30.23,NNE,28,0.0,1.0,91,0.00,,,0.00,28.0,meteohub,2013-04-17 11:43:00,
2013-04-17 07:49:00,63.0,58.5,30.23,NNE,28,0.0,1.0,91,0.00,,,0.00,33.0,meteohub,2013-04-17 11:49:00,
2013-04-17 07:54:00,63.0,58.5,30.23,NNE,28,0.0,1.0,91,0.00,,,0.00,28.0,meteohub,2013-04-17 11:54:00,
2013-04-17 07:59:00,63.0,58.5,30.23,NNE,28,0.0,1.0,91,0.00,,,0.00,26.0,meteohub,2013-04-17 11:59:00,
2013-04-17 08:04:00,63.1,58.6,30.24,NNE,28,0.0,1.0,91,0.00,,,0.00,26.0,meteohub,2013-04-17 12:04:00,
2013-04-17 08:10:00,63.0,58.5,30.24,NNE,28,0.0,1.0,91,0.00,,,0.00,32.0,meteohub,2013-04-17 12:10:00,
2013-04-17 08:15:00,63.1,58.6,30.23,NNE,28,0.0,1.0,91,0.00,,,0.00,35.0,meteohub,2013-04-17 12:15:00,
2013-04-17 08:20:00,63.1,58.6,30.23,NNE,28,0.0,1.0,91,0.00,,,0.00,42.0,meteohub,2013-04-17 12:20:00,
2013-04-17 08:26:00,63.1,58.6,30.24,NNE,28,0.0,1.0,91,0.00,,,0.00,56.0,meteohub,2013-04-17 12:26:00,
2013-04-17 08:31:00,63.1,58.6,30.24,NNE,28,0.0,1.0,91,0.00,,,0.00,60.0,meteohub,2013-04-17 12:31:00,
2013-04-17 08:37:00,63.3,59.0,30.24,NNE,28,0.0,1.0,92,0.00,,,0.00,58.0,meteohub,2013-04-17 12:37:00,
2013-04-17 08:42:00,63.3,59.0,30.24,NNE,28,0.0,1.0,92,0.00,,,0.00,62.0,meteohub,2013-04-17 12:42:00,
2013-04-17 08:47:00,63.7,59.4,30.24,NNE,28,0.0,1.0,92,0.00,,,0.00,79.0,meteohub,2013-04-17 12:47:00,
2013-04-17 08:52:00,63.9,59.5,30.24,NNE,27,0.0,1.0,92,0.00,,,0.00,86.0,meteohub,2013-04-17 12:52:00,
2013-04-17 08:57:00,64.0,59.7,30.24,NNE,27,1.0,1.0,92,0.00,,,0.00,125.0,meteohub,2013-04-17 12:57:00,
2013-04-17 09:02:00,64.2,59.9,30.24,SW,230,1.0,1.0,92,0.00,,,0.00,202.0,meteohub,2013-04-17 13:02:00,
2013-04-17 09:07:00,64.6,59.9,30.24,SW,221,3.0,3.0,91,0.00,,,0.00,193.0,meteohub,2013-04-17 13:07:00,
2013-04-17 09:13:00,64.9,60.3,30.24,SW,234,0.0,2.0,91,0.00,,,0.00,135.0,meteohub,2013-04-17 13:13:00,
2013-04-17 09:18:00,65.5,60.3,30.24,South,189,2.0,2.0,89,0.00,,,0.00,125.0,meteohub,2013-04-17 13:18:00,
2013-04-17 09:23:00,66.0,60.1,30.24,SSW,200,0.0,2.0,87,0.00,,,0.00,102.0,meteohub,2013-04-17 13:23:00,
2013-04-17 09:28:00,66.6,60.3,30.24,South,177,0.0,2.0,86,0.00,,,0.00,95.0,meteohub,2013-04-17 13:28:00,
2013-04-17 09:33:00,66.7,60.1,30.24,South,177,0.0,2.0,85,0.00,,,0.00,86.0,meteohub,2013-04-17 13:33:00,
2013-04-17 09:38:00,67.3,60.6,30.24,South,177,0.0,2.0,85,0.00,,,0.00,114.0,meteohub,2013-04-17 13:38:00,
2013-04-17 09:44:00,67.5,60.4,30.24,South,177,1.0,4.0,84,0.00,,,0.00,93.0,meteohub,2013-04-17 13:44:00,
2013-04-17 09:49:00,67.8,60.6,30.24,East,84,1.0,4.0,84,0.00,,,0.00,91.0,meteohub,2013-04-17 13:49:00,
2013-04-17 09:54:00,68.4,60.1,30.24,SE,134,1.0,4.0,81,0.00,,,0.00,104.0,meteohub,2013-04-17 13:54:00,
2013-04-17 09:59:00,68.7,60.8,30.24,SE,134,1.0,4.0,82,0.00,,,0.00,420.0,meteohub,2013-04-17 13:59:00,
2013-04-17 10:04:00,69.1,61.2,30.23,ESE,111,0.0,4.0,82,0.00,,,0.00,459.0,meteohub,2013-04-17 14:04:00,
2013-04-17 10:09:00,69.6,60.6,30.23,East,85,1.0,4.0,79,0.00,,,0.00,422.0,meteohub,2013-04-17 14:09:00,
2013-04-17 10:15:00,70.3,60.8,30.23,ENE,74,1.0,4.0,78,0.00,,,0.00,482.0,meteohub,2013-04-17 14:15:00,
2013-04-17 10:20:00,70.9,61.3,30.23,SW,231,1.0,4.0,78,0.00,,,0.00,515.0,meteohub,2013-04-17 14:20:00,
2013-04-17 10:25:00,72.1,61.3,30.22,SW,231,0.0,4.0,75,0.00,,,0.00,536.0,meteohub,2013-04-17 14:25:00,
2013-04-17 10:30:00,72.9,62.1,30.22,SW,229,0.0,4.0,75,0.00,,,0.00,547.0,meteohub,2013-04-17 14:30:00,
2013-04-17 10:35:00,72.9,60.8,30.23,SW,229,0.0,4.0,72,0.00,,,0.00,540.0,meteohub,2013-04-17 14:35:00,
2013-04-17 10:42:00,73.4,61.3,30.22,South,173,1.0,4.0,72,0.00,,,0.00,559.0,meteohub,2013-04-17 14:42:00,
2013-04-17 10:47:00,73.6,61.2,30.22,SE,144,1.0,4.0,71,0.00,,,0.00,594.0,meteohub,2013-04-17 14:47:00,
2013-04-17 10:52:00,74.5,62.4,30.22,SW,231,3.0,4.0,72,0.00,,,0.00,606.0,meteohub,2013-04-17 14:52:00,
2013-04-17 10:57:00,74.7,61.2,30.22,West,269,1.0,4.0,69,0.00,,,0.00,606.0,meteohub,2013-04-17 14:57:00,
2013-04-17 11:02:00,74.3,60.8,30.22,SW,229,2.0,4.0,69,0.00,,,0.00,633.0,meteohub,2013-04-17 15:02:00,
2013-04-17 11:07:00,74.7,61.2,30.22,West,267,2.0,4.0,69,0.00,,,0.00,652.0,meteohub,2013-04-17 15:07:00,
2013-04-17 11:12:00,75.2,61.7,30.22,West,273,0.0,4.0,69,0.00,,,0.00,650.0,meteohub,2013-04-17 15:12:00,
2013-04-17 11:17:00,75.9,61.9,30.22,WSW,246,2.0,4.0,68,0.00,,,0.00,650.0,meteohub,2013-04-17 15:17:00,
2013-04-17 11:22:00,75.4,61.0,30.22,NE,56,2.0,4.0,67,0.00,,,0.00,666.0,meteohub,2013-04-17 15:22:00,
2013-04-17 11:28:00,75.9,62.4,30.22,NE,34,0.0,4.0,69,0.00,,,0.00,682.0,meteohub,2013-04-17 15:28:00,
2013-04-17 11:33:00,76.5,62.4,30.22,ENE,69,0.0,4.0,68,0.00,,,0.00,703.0,meteohub,2013-04-17 15:33:00,
2013-04-17 11:38:00,76.3,62.8,30.22,ENE,75,0.0,7.0,69,0.00,,,0.00,691.0,meteohub,2013-04-17 15:38:00,
2013-04-17 11:43:00,77.2,63.7,30.22,ESE,108,1.0,7.0,69,0.00,,,0.00,729.0,meteohub,2013-04-17 15:43:00,
2013-04-17 11:48:00,76.6,61.2,30.22,East,94,1.0,7.0,65,0.00,,,0.00,728.0,meteohub,2013-04-17 15:48:00,
2013-04-17 11:53:00,77.2,60.8,30.22,East,101,1.0,7.0,63,0.00,,,0.00,717.0,meteohub,2013-04-17 15:53:00,
2013-04-17 11:59:00,76.5,62.4,30.22,South,171,2.0,7.0,68,0.00,,,0.00,707.0,meteohub,2013-04-17 15:59:00,
2013-04-17 12:04:00,77.0,63.0,30.22,West,259,4.0,6.0,68,0.00,,,0.00,721.0,meteohub,2013-04-17 16:04:00,
2013-04-17 12:09:00,77.2,61.3,30.22,NNW,344,3.0,6.0,64,0.00,,,0.00,708.0,meteohub,2013-04-17 16:09:00,
2013-04-17 12:14:00,77.5,61.5,30.22,NW,314,1.0,6.0,64,0.00,,,0.00,659.0,meteohub,2013-04-17 16:14:00,
2013-04-17 12:20:00,77.4,59.9,30.22,West,265,4.0,6.0,61,0.00,,,0.00,320.0,meteohub,2013-04-17 16:20:00,
2013-04-17 12:25:00,76.6,60.8,30.21,NW,313,1.0,6.0,64,0.00,,,0.00,309.0,meteohub,2013-04-17 16:25:00,
2013-04-17 12:30:00,77.2,62.2,30.21,ESE,122,1.0,6.0,66,0.00,,,0.00,330.0,meteohub,2013-04-17 16:30:00,
2013-04-17 12:35:00,77.4,62.4,30.21,ENE,61,0.0,6.0,66,0.00,,,0.00,334.0,meteohub,2013-04-17 16:35:00,
2013-04-17 12:40:00,77.2,60.8,30.20,SE,128,0.0,6.0,63,0.00,,,0.00,563.0,meteohub,2013-04-17 16:40:00,
2013-04-17 12:45:00,78.4,61.0,30.20,North,11,0.0,5.0,61,0.00,,,0.00,823.0,meteohub,2013-04-17 16:45:00,
2013-04-17 12:50:00,79.5,61.3,30.20,West,263,2.0,5.0,60,0.00,,,0.00,661.0,meteohub,2013-04-17 16:50:00,
2013-04-17 12:56:00,79.3,62.2,30.20,East,80,2.0,5.0,62,0.00,,,0.00,701.0,meteohub,2013-04-17 16:56:00,
2013-04-17 13:01:00,79.0,61.0,30.19,NE,38,1.0,5.0,60,0.00,,,0.00,332.0,meteohub,2013-04-17 17:01:00,
2013-04-17 13:06:00,79.0,63.0,30.19,NNE,15,0.0,5.0,64,0.00,,,0.00,751.0,meteohub,2013-04-17 17:06:00,
2013-04-17 13:11:00,79.3,62.2,30.20,ENE,74,1.0,5.0,62,0.00,,,0.00,728.0,meteohub,2013-04-17 17:11:00,
2013-04-17 13:16:00,79.9,61.7,30.19,WSW,251,3.0,5.0,60,0.00,,,0.00,867.0,meteohub,2013-04-17 17:16:00,
2013-04-17 13:22:00,79.3,60.3,30.19,SSE,151,0.0,5.0,58,0.00,,,0.00,561.0,meteohub,2013-04-17 17:22:00,
2013-04-17 13:27:00,79.3,61.2,30.19,SE,136,0.0,5.0,60,0.00,,,0.00,246.0,meteohub,2013-04-17 17:27:00,
2013-04-17 13:32:00,79.0,61.0,30.19,SSE,148,2.0,5.0,60,0.00,,,0.00,860.0,meteohub,2013-04-17 17:32:00,
2013-04-17 13:38:00,79.9,59.5,30.19,West,261,0.0,5.0,56,0.00,,,0.00,868.0,meteohub,2013-04-17 17:38:00,
2013-04-17 13:43:00,80.2,60.4,30.18,WSW,248,1.0,5.0,57,0.00,,,0.00,819.0,meteohub,2013-04-17 17:43:00,
2013-04-17 13:48:00,81.0,60.1,30.18,SW,217,1.0,5.0,55,0.00,,,0.00,819.0,meteohub,2013-04-17 17:48:00,
2013-04-17 13:54:00,81.1,59.5,30.18,SSW,212,0.0,7.0,54,0.00,,,0.00,701.0,meteohub,2013-04-17 17:54:00,
2013-04-17 13:59:00,80.2,59.4,30.18,WSW,244,1.0,7.0,55,0.00,,,0.00,271.0,meteohub,2013-04-17 17:59:00,
2013-04-17 14:05:00,79.5,61.9,30.18,ESE,113,2.0,7.0,61,0.00,,,0.00,496.0,meteohub,2013-04-17 18:05:00,
2013-04-17 14:10:00,80.4,62.2,30.17,SE,136,0.0,7.0,60,0.00,,,0.00,332.0,meteohub,2013-04-17 18:10:00,
2013-04-17 14:15:00,80.8,61.0,30.17,East,83,1.0,7.0,57,0.00,,,0.00,297.0,meteohub,2013-04-17 18:15:00,
2013-04-17 14:21:00,80.6,59.2,30.17,ENE,64,2.0,7.0,54,0.00,,,0.00,888.0,meteohub,2013-04-17 18:21:00,
2013-04-17 14:26:00,81.3,64.6,30.17,SE,141,2.0,5.0,63,0.00,,,0.00,819.0,meteohub,2013-04-17 18:26:00,
2013-04-17 14:31:00,82.6,63.7,30.17,SE,136,0.0,5.0,59,0.00,,,0.00,761.0,meteohub,2013-04-17 18:31:00,
2013-04-17 14:37:00,81.3,59.7,30.17,SSW,197,0.0,5.0,54,0.00,,,0.00,302.0,meteohub,2013-04-17 18:37:00,
2013-04-17 14:42:00,81.1,61.9,30.17,ENE,67,2.0,5.0,58,0.00,,,0.00,854.0,meteohub,2013-04-17 18:42:00,
2013-04-17 14:47:00,82.0,61.5,30.16,SW,234,0.0,5.0,56,0.00,,,0.00,803.0,meteohub,2013-04-17 18:47:00,
2013-04-17 14:52:00,82.9,62.4,30.16,East,92,2.0,5.0,56,0.00,,,0.00,768.0,meteohub,2013-04-17 18:52:00,
2013-04-17 14:57:00,81.9,61.9,30.16,SSE,153,4.0,5.0,57,0.00,,,0.00,336.0,meteohub,2013-04-17 18:57:00,
2013-04-17 15:02:00,81.5,61.7,30.16,SE,134,2.0,5.0,57,0.00,,,0.00,638.0,meteohub,2013-04-17 19:02:00,
2013-04-17 15:07:00,82.2,62.8,30.15,NNE,28,1.0,5.0,58,0.00,,,0.00,770.0,meteohub,2013-04-17 19:07:00,
2013-04-17 15:12:00,82.2,61.7,30.15,SE,143,2.0,5.0,56,0.00,,,0.00,770.0,meteohub,2013-04-17 19:12:00,
2013-04-17 15:17:00,82.8,59.9,30.14,West,280,5.0,5.0,52,0.00,,,0.00,733.0,meteohub,2013-04-17 19:17:00,
2013-04-17 15:22:00,82.0,59.9,30.14,NW,319,1.0,5.0,53,0.00,,,0.00,744.0,meteohub,2013-04-17 19:22:00,
2013-04-17 15:27:00,83.1,64.8,30.13,ESE,115,0.0,7.0,60,0.00,,,0.00,773.0,meteohub,2013-04-17 19:27:00,
2013-04-17 15:33:00,83.8,61.5,30.13,SSW,205,1.0,7.0,53,0.00,,,0.00,758.0,meteohub,2013-04-17 19:33:00,
2013-04-17 15:38:00,83.8,62.6,30.13,ESE,108,1.0,7.0,55,0.00,,,0.00,700.0,meteohub,2013-04-17 19:38:00,
2013-04-17 15:43:00,82.6,59.7,30.13,ESE,115,2.0,7.0,52,0.00,,,0.00,227.0,meteohub,2013-04-17 19:43:00,
2013-04-17 15:49:00,81.7,61.2,30.12,NE,55,1.0,7.0,56,0.00,,,0.00,649.0,meteohub,2013-04-17 19:49:00,
2013-04-17 15:54:00,82.6,62.1,30.12,South,179,0.0,7.0,56,0.00,,,0.00,299.0,meteohub,2013-04-17 19:54:00,
2013-04-17 15:59:00,81.9,61.3,30.12,ENE,73,1.0,6.0,56,0.00,,,0.00,234.0,meteohub,2013-04-17 19:59:00,
2013-04-17 16:04:00,81.9,60.3,30.12,ENE,75,1.0,6.0,54,0.00,,,0.00,206.0,meteohub,2013-04-17 20:04:00,
2013-04-17 16:09:00,81.3,61.0,30.12,South,182,1.0,6.0,56,0.00,,,0.00,185.0,meteohub,2013-04-17 20:09:00,
2013-04-17 16:15:00,80.6,62.4,30.12,ENE,69,0.0,6.0,60,0.00,,,0.00,188.0,meteohub,2013-04-17 20:15:00,
2013-04-17 16:20:00,80.8,60.4,30.12,WSW,245,2.0,6.0,56,0.00,,,0.00,218.0,meteohub,2013-04-17 20:20:00,
2013-04-17 16:25:00,80.8,60.4,30.12,West,281,1.0,6.0,56,0.00,,,0.00,223.0,meteohub,2013-04-17 20:25:00,
2013-04-17 16:31:00,80.8,62.1,30.12,SSW,211,1.0,6.0,59,0.00,,,0.00,214.0,meteohub,2013-04-17 20:31:00,
2013-04-17 16:36:00,81.0,60.6,30.12,West,259,0.0,6.0,56,0.00,,,0.00,213.0,meteohub,2013-04-17 20:36:00,
2013-04-17 16:41:00,80.8,60.4,30.12,West,269,0.0,6.0,56,0.00,,,0.00,213.0,meteohub,2013-04-17 20:41:00,
2013-04-17 16:47:00,80.8,62.1,30.12,ENE,77,1.0,6.0,59,0.00,,,0.00,204.0,meteohub,2013-04-17 20:47:00,
2013-04-17 16:52:00,80.4,62.2,30.11,SE,130,4.0,6.0,60,0.00,,,0.00,197.0,meteohub,2013-04-17 20:52:00,
2013-04-17 16:57:00,80.2,61.0,30.12,WSW,239,3.0,6.0,58,0.00,,,0.00,185.0,meteohub,2013-04-17 20:57:00,
2013-04-17 17:02:00,80.2,59.9,30.11,South,184,3.0,5.0,56,0.00,,,0.00,178.0,meteohub,2013-04-17 21:02:00,
2013-04-17 17:07:00,80.1,60.8,30.11,SSW,192,0.0,5.0,58,0.00,,,0.00,171.0,meteohub,2013-04-17 21:07:00,
2013-04-17 17:12:00,80.1,60.3,30.12,WSW,238,0.0,5.0,57,0.00,,,0.00,163.0,meteohub,2013-04-17 21:12:00,
2013-04-17 17:17:00,80.1,63.9,30.11,SW,234,0.0,5.0,64,0.00,,,0.00,158.0,meteohub,2013-04-17 21:17:00,
2013-04-17 17:22:00,80.1,61.9,30.12,SW,234,0.0,5.0,60,0.00,,,0.00,160.0,meteohub,2013-04-17 21:22:00,
2013-04-17 17:27:00,80.1,60.8,30.11,SE,130,1.0,3.0,58,0.00,,,0.00,153.0,meteohub,2013-04-17 21:27:00,
2013-04-17 17:33:00,79.9,61.2,30.12,ENE,76,2.0,3.0,59,0.00,,,0.00,132.0,meteohub,2013-04-17 21:33:00,
2013-04-17 17:38:00,79.5,60.8,30.11,SE,131,2.0,3.0,59,0.00,,,0.00,125.0,meteohub,2013-04-17 21:38:00,
2013-04-17 17:44:00,79.3,61.2,30.11,East,84,0.0,3.0,60,0.00,,,0.00,127.0,meteohub,2013-04-17 21:44:00,
2013-04-17 17:49:00,79.3,61.2,30.11,East,84,0.0,3.0,60,0.00,,,0.00,125.0,meteohub,2013-04-17 21:49:00,
2013-04-17 17:54:00,79.2,61.5,30.11,East,84,0.0,3.0,61,0.00,,,0.00,118.0,meteohub,2013-04-17 21:54:00,
2013-04-17 18:00:00,79.3,61.7,30.12,East,84,1.0,2.0,61,0.00,,,0.00,114.0,meteohub,2013-04-17 22:00:00,
2013-04-17 18:05:00,79.2,61.2,30.12,East,84,0.0,2.0,60,0.00,,,0.00,113.0,meteohub,2013-04-17 22:05:00,
2013-04-17 18:10:00,79.2,60.6,30.12,East,84,0.0,2.0,59,0.00,,,0.00,109.0,meteohub,2013-04-17 22:10:00,
2013-04-17 18:15:00,79.2,61.2,30.12,WSW,244,1.0,2.0,60,0.00,,,0.00,107.0,meteohub,2013-04-17 22:15:00,
2013-04-17 18:21:00,79.2,62.1,30.12,WSW,244,0.0,2.0,62,0.00,,,0.00,109.0,meteohub,2013-04-17 22:21:00,
2013-04-17 18:26:00,79.2,61.2,30.11,WSW,244,0.0,2.0,60,0.00,,,0.00,104.0,meteohub,2013-04-17 22:26:00,
2013-04-17 18:32:00,79.2,61.5,30.11,WSW,244,0.0,2.0,61,0.00,,,0.00,95.0,meteohub,2013-04-17 22:32:00,
2013-04-17 18:37:00,79.2,61.2,30.11,WSW,244,0.0,1.0,60,0.00,,,0.00,90.0,meteohub,2013-04-17 22:37:00,
2013-04-17 18:42:00,79.2,61.5,30.11,WNW,284,0.0,1.0,61,0.00,,,0.00,83.0,meteohub,2013-04-17 22:42:00,
2013-04-17 18:47:00,79.0,61.0,30.11,WNW,284,1.0,1.0,60,0.00,,,0.00,72.0,meteohub,2013-04-17 22:47:00,
2013-04-17 18:52:00,79.0,61.5,30.11,WNW,283,0.0,1.0,61,0.00,,,0.00,65.0,meteohub,2013-04-17 22:52:00,
2013-04-17 18:58:00,78.8,61.7,30.11,NNE,27,0.0,1.0,62,0.00,,,0.00,58.0,meteohub,2013-04-17 22:58:00,
2013-04-17 19:03:00,78.6,60.6,30.11,NNW,342,0.0,1.0,60,0.00,,,0.00,40.0,meteohub,2013-04-17 23:03:00,
2013-04-17 19:08:00,78.6,61.2,30.11,NNW,342,0.0,1.0,61,0.00,,,0.00,33.0,meteohub,2013-04-17 23:08:00,
2013-04-17 19:14:00,78.6,60.6,30.12,NNW,342,0.0,2.0,60,0.00,,,0.00,28.0,meteohub,2013-04-17 23:14:00,
2013-04-17 19:19:00,78.6,60.6,30.12,NNW,342,0.0,2.0,60,0.00,,,0.00,25.0,meteohub,2013-04-17 23:19:00,
2013-04-17 19:24:00,78.4,61.0,30.12,NNW,342,0.0,2.0,61,0.00,,,0.00,19.0,meteohub,2013-04-17 23:24:00,
2013-04-17 19:30:00,78.4,61.5,30.12,NNW,342,0.0,2.0,62,0.00,,,0.00,14.0,meteohub,2013-04-17 23:30:00,
2013-04-17 19:35:00,78.3,61.7,30.12,NNW,342,0.0,2.0,63,0.00,,,0.00,12.0,meteohub,2013-04-17 23:35:00,
2013-04-17 19:40:00,78.1,61.5,30.12,NNW,342,0.0,2.0,63,0.00,,,0.00,12.0,meteohub,2013-04-17 23:40:00,
2013-04-17 19:45:00,77.7,61.3,30.12,NNW,342,0.0,1.0,63,0.00,,,0.00,11.0,meteohub,2013-04-17 23:45:00,
2013-04-17 19:51:00,77.5,61.5,30.12,NNW,342,0.0,1.0,64,0.00,,,0.00,11.0,meteohub,2013-04-17 23:51:00,
2013-04-17 19:56:00,77.4,61.3,30.12,NNW,342,0.0,1.0,64,0.00,,,0.00,7.0,meteohub,2013-04-17 23:56:00,
2013-04-17 20:02:00,77.0,61.5,30.12,NNW,342,0.0,1.0,65,0.00,,,0.00,0.0,meteohub,2013-04-18 00:02:00,
2013-04-17 20:07:00,76.6,61.2,30.12,NNW,342,0.0,1.0,65,0.00,,,0.00,0.0,meteohub,2013-04-18 00:07:00,
2013-04-17 20:12:00,76.5,61.0,30.12,NNW,342,0.0,1.0,65,0.00,,,0.00,0.0,meteohub,2013-04-18 00:12:00,
2013-04-17 20:17:00,76.3,61.0,30.13,NNW,342,0.0,1.0,65,0.00,,,0.00,0.0,meteohub,2013-04-18 00:17:00,
2013-04-17 20:22:00,75.9,61.5,30.14,ESE,123,2.0,2.0,67,0.00,,,0.00,0.0,meteohub,2013-04-18 00:22:00,
2013-04-17 20:27:00,75.0,59.7,30.14,ENE,62,6.0,6.0,65,0.00,,,0.00,0.0,meteohub,2013-04-18 00:27:00,
2013-04-17 20:32:00,74.5,59.2,30.15,ENE,74,8.0,8.0,65,0.00,,,0.00,0.0,meteohub,2013-04-18 00:32:00,
2013-04-17 20:37:00,73.8,59.0,30.15,ESE,102,6.0,6.0,66,0.00,,,0.00,0.0,meteohub,2013-04-18 00:37:00,
2013-04-17 20:42:00,73.0,59.2,30.15,NE,34,8.0,8.0,68,0.00,,,0.00,0.0,meteohub,2013-04-18 00:42:00,
2013-04-17 20:47:00,72.7,58.8,30.15,ENE,74,5.0,5.0,68,0.00,,,0.00,0.0,meteohub,2013-04-18 00:47:00,
2013-04-17 20:52:00,72.1,58.8,30.15,ENE,69,2.0,2.0,69,0.00,,,0.00,0.0,meteohub,2013-04-18 00:52:00,
2013-04-17 20:57:00,71.6,58.8,30.15,ESE,123,2.0,14.0,70,0.00,,,0.00,0.0,meteohub,2013-04-18 00:57:00,
2013-04-17 21:03:00,71.2,58.5,30.16,NE,39,2.0,14.0,70,0.00,,,0.00,0.0,meteohub,2013-04-18 01:03:00,
2013-04-17 21:08:00,70.9,58.5,30.16,East,86,2.0,14.0,71,0.00,,,0.00,0.0,meteohub,2013-04-18 01:08:00,
2013-04-17 21:13:00,70.3,58.5,30.16,South,175,2.0,14.0,72,0.00,,,0.00,0.0,meteohub,2013-04-18 01:13:00,
2013-04-17 21:18:00,70.0,58.5,30.16,ENE,70,2.0,14.0,73,0.00,,,0.00,0.0,meteohub,2013-04-18 01:18:00,
2013-04-17 21:24:00,69.6,58.6,30.16,SE,138,2.0,8.0,74,0.00,,,0.00,0.0,meteohub,2013-04-18 01:24:00,
2013-04-17 21:29:00,69.4,58.8,30.15,NE,42,0.0,8.0,75,0.00,,,0.00,0.0,meteohub,2013-04-18 01:29:00,
2013-04-17 21:35:00,69.3,58.6,30.15,ESE,113,1.0,8.0,75,0.00,,,0.00,0.0,meteohub,2013-04-18 01:35:00,
2013-04-17 21:40:00,68.9,58.6,30.15,NE,35,2.0,8.0,76,0.00,,,0.00,0.0,meteohub,2013-04-18 01:40:00,
2013-04-17 21:46:00,68.7,58.5,30.16,ENE,60,1.0,8.0,76,0.00,,,0.00,0.0,meteohub,2013-04-18 01:46:00,
2013-04-17 21:51:00,68.5,58.8,30.16,SE,128,1.0,8.0,77,0.00,,,0.00,0.0,meteohub,2013-04-18 01:51:00,
2013-04-17 21:56:00,68.4,58.6,30.16,ESE,119,0.0,7.0,77,0.00,,,0.00,0.0,meteohub,2013-04-18 01:56:00,
2013-04-17 22:02:00,68.2,58.5,30.16,South,170,0.0,7.0,77,0.00,,,0.00,0.0,meteohub,2013-04-18 02:02:00,
2013-04-17 22:07:00,68.0,58.6,30.16,North,5,0.0,7.0,78,0.00,,,0.00,0.0,meteohub,2013-04-18 02:07:00,
2013-04-17 22:12:00,67.8,58.5,30.15,NNE,19,1.0,7.0,78,0.00,,,0.00,0.0,meteohub,2013-04-18 02:12:00,
2013-04-17 22:17:00,67.6,58.3,30.15,ENE,61,0.0,7.0,78,0.00,,,0.00,0.0,meteohub,2013-04-18 02:17:00,
2013-04-17 22:23:00,67.5,58.5,30.15,NE,40,0.0,7.0,79,0.00,,,0.00,0.0,meteohub,2013-04-18 02:23:00,
2013-04-17 22:28:00,67.3,58.3,30.15,NE,51,1.0,4.0,79,0.00,,,0.00,0.0,meteohub,2013-04-18 02:28:00,
2013-04-17 22:33:00,67.3,58.6,30.15,ENE,75,1.0,4.0,80,0.00,,,0.00,0.0,meteohub,2013-04-18 02:33:00,
2013-04-17 22:39:00,67.1,58.5,30.15,NE,38,1.0,4.0,80,0.00,,,0.00,0.0,meteohub,2013-04-18 02:39:00,
2013-04-17 22:44:00,66.9,58.8,30.15,NE,38,0.0,4.0,81,0.00,,,0.00,0.0,meteohub,2013-04-18 02:44:00,
2013-04-17 22:49:00,66.7,58.6,30.15,NE,38,0.0,4.0,81,0.00,,,0.00,0.0,meteohub,2013-04-18 02:49:00,
2013-04-17 22:54:00,66.7,59.0,30.15,NE,51,2.0,4.0,82,0.00,,,0.00,0.0,meteohub,2013-04-18 02:54:00,
2013-04-17 22:59:00,66.6,58.8,30.15,ENE,76,2.0,4.0,82,0.00,,,0.00,0.0,meteohub,2013-04-18 02:59:00,
2013-04-17 23:04:00,66.4,58.6,30.15,ENE,63,1.0,4.0,82,0.00,,,0.00,0.0,meteohub,2013-04-18 03:04:00,
2013-04-17 23:10:00,66.4,59.0,30.15,ENE,63,2.0,4.0,83,0.00,,,0.00,0.0,meteohub,2013-04-18 03:10:00,
2013-04-17 23:15:00,66.0,58.6,30.14,ENE,59,5.0,5.0,83,0.00,,,0.00,0.0,meteohub,2013-04-18 03:15:00,
2013-04-17 23:20:00,66.0,59.0,30.14,NE,56,2.0,4.0,84,0.00,,,0.00,0.0,meteohub,2013-04-18 03:20:00,
2013-04-17 23:25:00,65.8,58.8,30.14,WNW,296,0.0,4.0,84,0.00,,,0.00,0.0,meteohub,2013-04-18 03:25:00,
2013-04-17 23:31:00,65.8,58.8,30.14,WNW,296,0.0,4.0,84,0.00,,,0.00,0.0,meteohub,2013-04-18 03:31:00,
2013-04-17 23:37:00,65.7,58.6,30.13,SSW,207,0.0,4.0,84,0.00,,,0.00,0.0,meteohub,2013-04-18 03:37:00,
2013-04-17 23:42:00,65.7,58.6,30.13,SE,134,0.0,4.0,84,0.00,,,0.00,0.0,meteohub,2013-04-18 03:42:00,
2013-04-17 23:47:00,65.5,58.8,30.12,North,5,0.0,4.0,85,0.00,,,0.00,0.0,meteohub,2013-04-18 03:47:00,
2013-04-17 23:52:00,65.5,58.8,30.12,North,5,1.0,4.0,85,0.00,,,0.00,0.0,meteohub,2013-04-18 03:52:00,
2013-04-17 23:57:00,65.3,58.6,30.11,SSE,161,0.0,4.0,85,0.00,,,0.00,0.0,meteohub,2013-04-18 03:57:00,